N172SP KMYR-KDAB

Flight info

Callsign N172SP
Flight time N/A
Altitude 5000
Route BUNDE DEBRL
Aircraft C172/L-DOV/C

Departure

Time N/A
Airport Myrtle Beach International Airport (KMYR)

Arrival

Time 2026-05-04 15:26
Airport Daytona Beach International Airport (KDAB)
Time Latitude Longitude Altitude Speed Heading
2026-05-04 14:26 30.49801 -81.68215 20 ft 0 kts 340°
2026-05-04 14:27 30.49802 -81.68215 20 ft 1 kts 339°
2026-05-04 14:27 30.49808 -81.68256 20 ft 10 kts 251°
2026-05-04 14:27 30.49786 -81.68260 20 ft 9 kts 53°
2026-05-04 14:27 30.49830 -81.68179 20 ft 13 kts 65°
2026-05-04 14:28 30.49862 -81.68074 20 ft 14 kts 69°
2026-05-04 14:28 30.49854 -81.67964 20 ft 13 kts 99°
2026-05-04 14:28 30.49885 -81.67916 20 ft 7 kts 347°
2026-05-04 14:28 30.49936 -81.67936 20 ft 9 kts 342°
2026-05-04 14:29 30.50034 -81.68078 20 ft 17 kts 250°
2026-05-04 14:29 30.49936 -81.68398 20 ft 25 kts 249°
2026-05-04 14:30 30.49886 -81.68564 20 ft 19 kts 249°
2026-05-04 14:30 30.49839 -81.68719 20 ft 21 kts 250°
2026-05-04 14:30 30.49738 -81.69048 20 ft 17 kts 250°
2026-05-04 14:31 30.49711 -81.69162 20 ft 11 kts 279°
2026-05-04 14:31 30.49768 -81.69202 20 ft 0 kts
2026-05-04 14:33 30.49774 -81.69202 20 ft 3 kts
2026-05-04 14:33 30.49831 -81.69186 20 ft 13 kts 29°
2026-05-04 14:34 30.49906 -81.69067 20 ft 27 kts 69°
2026-05-04 14:34 30.50020 -81.68699 21 ft 68 kts 70°
2026-05-04 14:34 30.50190 -81.68138 160 ft 73 kts 68°
2026-05-04 14:34 30.50368 -81.67577 333 ft 73 kts 69°
2026-05-04 14:35 30.50528 -81.67020 509 ft 72 kts 67°
2026-05-04 14:35 30.50713 -81.66486 690 ft 71 kts 63°
2026-05-04 14:35 30.50937 -81.65977 871 ft 71 kts 54°
2026-05-04 14:35 30.51130 -81.65490 1079 ft 66 kts 76°
2026-05-04 14:36 30.51144 -81.64932 1205 ft 73 kts 94°
2026-05-04 14:36 30.50881 -81.64420 1349 ft 76 kts 126°
2026-05-04 14:36 30.50452 -81.64046 1511 ft 77 kts 140°
2026-05-04 14:36 30.49986 -81.63741 1666 ft 77 kts 143°
2026-05-04 14:37 30.49506 -81.63450 1816 ft 77 kts 144°
2026-05-04 14:37 30.49026 -81.63169 1959 ft 77 kts 145°
2026-05-04 14:37 30.48543 -81.62895 2108 ft 77 kts 146°
2026-05-04 14:37 30.48058 -81.62625 2259 ft 77 kts 145°
2026-05-04 14:38 30.47574 -81.62358 2409 ft 77 kts 147°
2026-05-04 14:38 30.47088 -81.62091 2557 ft 77 kts 146°
2026-05-04 14:38 30.46604 -81.61828 2703 ft 77 kts 147°
2026-05-04 14:38 30.46125 -81.61568 2843 ft 77 kts 146°
2026-05-04 14:39 30.45638 -81.61304 2984 ft 77 kts 146°
2026-05-04 14:39 30.45173 -81.61053 3119 ft 77 kts 146°
2026-05-04 14:39 30.44682 -81.60788 3262 ft 77 kts 145°
2026-05-04 14:40 30.43710 -81.60264 3542 ft 77 kts 146°
2026-05-04 14:40 30.43217 -81.59997 3680 ft 78 kts 147°
2026-05-04 14:40 30.42723 -81.59731 3814 ft 78 kts 147°
2026-05-04 14:40 30.42226 -81.59463 3948 ft 78 kts 147°
2026-05-04 14:41 30.41726 -81.59193 4080 ft 79 kts 147°
2026-05-04 14:41 30.41226 -81.58923 4214 ft 79 kts 148°
2026-05-04 14:41 30.40222 -81.58385 4474 ft 79 kts 147°
2026-05-04 14:42 30.39215 -81.57842 4738 ft 80 kts 148°
2026-05-04 14:42 30.38711 -81.57571 4869 ft 80 kts 149°
2026-05-04 14:42 30.38199 -81.57293 4969 ft 84 kts 148°
2026-05-04 14:43 30.37631 -81.56989 4990 ft 95 kts 150°
2026-05-04 14:43 30.36999 -81.56659 4990 ft 100 kts 150°
2026-05-04 14:43 30.36355 -81.56321 4987 ft 102 kts 151°
2026-05-04 14:43 30.35712 -81.55982 4986 ft 102 kts 151°
2026-05-04 14:44 30.35055 -81.55632 4987 ft 104 kts 151°
2026-05-04 14:44 30.34384 -81.55273 4983 ft 104 kts 152°
2026-05-04 14:44 30.33722 -81.54918 4982 ft 105 kts 151°
2026-05-04 14:44 30.33061 -81.54564 4985 ft 105 kts 150°
2026-05-04 14:45 30.32395 -81.54204 4987 ft 105 kts 151°
2026-05-04 14:45 30.31724 -81.53844 4985 ft 105 kts 151°
2026-05-04 14:45 30.31059 -81.53486 4984 ft 105 kts 150°
2026-05-04 14:45 30.30397 -81.53132 4984 ft 105 kts 151°
2026-05-04 14:46 30.29727 -81.52771 4987 ft 105 kts 151°
2026-05-04 14:46 30.29069 -81.52417 4986 ft 105 kts 150°
2026-05-04 14:46 30.28402 -81.52057 4983 ft 105 kts 152°
2026-05-04 14:46 30.27733 -81.51698 4986 ft 105 kts 151°
2026-05-04 14:47 30.27064 -81.51337 4987 ft 105 kts 150°
2026-05-04 14:47 30.26399 -81.50980 4984 ft 105 kts 150°
2026-05-04 14:47 30.25731 -81.50620 4984 ft 106 kts 150°
2026-05-04 14:47 30.25055 -81.50257 4984 ft 105 kts 151°
2026-05-04 14:48 30.24386 -81.49899 4987 ft 105 kts 152°
2026-05-04 14:48 30.23722 -81.49541 4989 ft 105 kts 151°
2026-05-04 14:48 30.23053 -81.49181 4987 ft 105 kts 151°
2026-05-04 14:48 30.22393 -81.48828 4984 ft 105 kts 150°
2026-05-04 14:49 30.21727 -81.48470 4986 ft 105 kts 151°
2026-05-04 14:49 30.21062 -81.48113 4986 ft 105 kts 151°
2026-05-04 14:49 30.20398 -81.47756 4984 ft 105 kts 151°
2026-05-04 14:49 30.19729 -81.47396 4985 ft 105 kts 150°
2026-05-04 14:50 30.19081 -81.47051 4985 ft 106 kts 150°
2026-05-04 14:50 30.18410 -81.46690 4985 ft 106 kts 150°
2026-05-04 14:50 30.17744 -81.46332 4988 ft 106 kts 150°
2026-05-04 14:50 30.17070 -81.45970 4984 ft 105 kts 150°
2026-05-04 14:51 30.16400 -81.45610 4985 ft 105 kts 151°
2026-05-04 14:51 30.15734 -81.45253 4987 ft 105 kts 150°
2026-05-04 14:51 30.15066 -81.44894 4988 ft 105 kts 151°
2026-05-04 14:51 30.14402 -81.44540 4988 ft 106 kts 151°
2026-05-04 14:52 30.13731 -81.44179 4988 ft 105 kts 151°
2026-05-04 14:52 30.13058 -81.43819 4988 ft 106 kts 150°
2026-05-04 14:52 30.12396 -81.43465 4987 ft 106 kts 151°
2026-05-04 14:52 30.11719 -81.43101 4986 ft 106 kts 150°
2026-05-04 14:53 30.11045 -81.42741 4987 ft 106 kts 150°
2026-05-04 14:53 30.10381 -81.42384 4987 ft 106 kts 151°
2026-05-04 14:53 30.09713 -81.42027 4987 ft 106 kts 150°
2026-05-04 14:53 30.09037 -81.41664 4986 ft 106 kts 150°
2026-05-04 14:54 30.08363 -81.41303 4987 ft 106 kts 151°
2026-05-04 14:54 30.07692 -81.40942 4988 ft 106 kts 150°
2026-05-04 14:54 30.07021 -81.40589 4986 ft 107 kts 155°
2026-05-04 14:54 30.06306 -81.40311 4987 ft 107 kts 159°
2026-05-04 14:55 30.05596 -81.40055 4988 ft 106 kts 159°
2026-05-04 14:55 30.04892 -81.39803 4987 ft 107 kts 158°
2026-05-04 14:55 30.04174 -81.39546 4988 ft 107 kts 159°
2026-05-04 14:55 30.03460 -81.39291 4987 ft 106 kts 159°
2026-05-04 14:56 30.02760 -81.39036 4986 ft 106 kts 158°
2026-05-04 14:56 30.02045 -81.38783 4987 ft 107 kts 158°
2026-05-04 14:56 30.01328 -81.38528 4986 ft 106 kts 159°
2026-05-04 14:56 30.00621 -81.38279 4986 ft 106 kts 158°
2026-05-04 14:57 29.99915 -81.38026 4986 ft 106 kts 159°
2026-05-04 14:57 29.99196 -81.37772 4987 ft 107 kts 158°
2026-05-04 14:57 29.98482 -81.37521 4988 ft 108 kts 158°
2026-05-04 14:57 29.97760 -81.37265 4988 ft 108 kts 158°
2026-05-04 14:58 29.97036 -81.37009 4988 ft 108 kts 159°
2026-05-04 14:58 29.96316 -81.36755 4988 ft 107 kts 160°
2026-05-04 14:58 29.95604 -81.36504 4985 ft 108 kts 159°
2026-05-04 14:58 29.94879 -81.36248 4985 ft 107 kts 159°
2026-05-04 14:59 29.94159 -81.35994 4986 ft 108 kts 159°
2026-05-04 14:59 29.93440 -81.35741 4985 ft 108 kts 159°
2026-05-04 14:59 29.92000 -81.35232 4984 ft 108 kts 159°
2026-05-04 15:00 29.91276 -81.34976 4984 ft 108 kts 160°
2026-05-04 15:00 29.90557 -81.34724 4983 ft 109 kts 159°
2026-05-04 15:00 29.89830 -81.34466 4982 ft 108 kts 159°
2026-05-04 15:01 29.88376 -81.33952 4979 ft 108 kts 159°
2026-05-04 15:01 29.87657 -81.33698 4980 ft 108 kts 160°
2026-05-04 15:01 29.86931 -81.33442 4980 ft 108 kts 159°
2026-05-04 15:01 29.86219 -81.33190 4982 ft 108 kts 160°
2026-05-04 15:02 29.85495 -81.32935 4980 ft 108 kts 160°
2026-05-04 15:02 29.84773 -81.32680 4980 ft 108 kts 160°
2026-05-04 15:02 29.84061 -81.32430 4979 ft 108 kts 160°
2026-05-04 15:02 29.83338 -81.32173 4981 ft 107 kts 160°
2026-05-04 15:03 29.82615 -81.31919 4981 ft 107 kts 160°
2026-05-04 15:03 29.81900 -81.31667 4983 ft 107 kts 160°
2026-05-04 15:03 29.81187 -81.31415 4985 ft 107 kts 160°
2026-05-04 15:03 29.80473 -81.31163 4987 ft 107 kts 160°
2026-05-04 15:04 29.79750 -81.30909 4986 ft 107 kts 160°
2026-05-04 15:04 29.79035 -81.30657 4987 ft 107 kts 160°
2026-05-04 15:04 29.78323 -81.30405 4987 ft 107 kts 160°
2026-05-04 15:04 29.77601 -81.30152 4988 ft 107 kts 160°
2026-05-04 15:05 29.76878 -81.29897 4989 ft 107 kts 160°
2026-05-04 15:05 29.76161 -81.29645 4986 ft 108 kts 160°
2026-05-04 15:05 29.75446 -81.29393 4985 ft 108 kts 160°
2026-05-04 15:05 29.74724 -81.29139 4985 ft 107 kts 160°
2026-05-04 15:06 29.74002 -81.28884 4983 ft 107 kts 160°
2026-05-04 15:06 29.73284 -81.28632 4983 ft 107 kts 160°
2026-05-04 15:06 29.72573 -81.28382 4983 ft 107 kts 160°
2026-05-04 15:07 29.71136 -81.27877 4980 ft 108 kts 160°
2026-05-04 15:07 29.70414 -81.27621 4976 ft 108 kts 160°
2026-05-04 15:07 29.69695 -81.27370 4973 ft 108 kts 160°
2026-05-04 15:07 29.68974 -81.27116 4971 ft 108 kts 159°
2026-05-04 15:08 29.68251 -81.26863 4970 ft 108 kts 159°
2026-05-04 15:08 29.67523 -81.26607 4970 ft 108 kts 158°
2026-05-04 15:08 29.66805 -81.26354 4968 ft 108 kts 159°
2026-05-04 15:08 29.66078 -81.26099 4967 ft 108 kts 159°
2026-05-04 15:09 29.65359 -81.25846 4967 ft 108 kts 159°
2026-05-04 15:09 29.64635 -81.25592 4967 ft 108 kts 159°
2026-05-04 15:09 29.63912 -81.25339 4967 ft 109 kts 159°
2026-05-04 15:10 29.62460 -81.24838 4966 ft 108 kts 160°
2026-05-04 15:10 29.61731 -81.24589 4968 ft 108 kts 161°
2026-05-04 15:10 29.60288 -81.24090 4969 ft 108 kts 160°
2026-05-04 15:11 29.59578 -81.23842 4968 ft 108 kts 160°
2026-05-04 15:11 29.58852 -81.23589 4968 ft 108 kts 159°
2026-05-04 15:11 29.58125 -81.23333 4969 ft 108 kts 160°
2026-05-04 15:11 29.57404 -81.23080 4967 ft 108 kts 160°
2026-05-04 15:12 29.56690 -81.22829 4967 ft 108 kts 160°
2026-05-04 15:12 29.55967 -81.22576 4965 ft 108 kts 160°
2026-05-04 15:12 29.55246 -81.22324 4966 ft 107 kts 160°
2026-05-04 15:12 29.54528 -81.22072 4965 ft 107 kts 159°
2026-05-04 15:13 29.53808 -81.21819 4969 ft 107 kts 160°
2026-05-04 15:13 29.53085 -81.21565 4965 ft 107 kts 160°
2026-05-04 15:13 29.52370 -81.21314 4967 ft 107 kts 159°
2026-05-04 15:13 29.51649 -81.21062 4969 ft 107 kts 160°
2026-05-04 15:14 29.50937 -81.20813 4965 ft 107 kts 160°
2026-05-04 15:14 29.50223 -81.20564 4965 ft 106 kts 160°
2026-05-04 15:14 29.49517 -81.20316 4963 ft 106 kts 160°
2026-05-04 15:14 29.48798 -81.20064 4967 ft 107 kts 160°
2026-05-04 15:15 29.48085 -81.19814 4965 ft 107 kts 160°
2026-05-04 15:15 29.47370 -81.19564 4967 ft 108 kts 159°
2026-05-04 15:15 29.46650 -81.19310 4968 ft 107 kts 159°
2026-05-04 15:16 29.45207 -81.18806 4969 ft 107 kts 160°
2026-05-04 15:16 29.44491 -81.18556 4970 ft 107 kts 160°
2026-05-04 15:16 29.43052 -81.18053 4965 ft 107 kts 160°
2026-05-04 15:17 29.42340 -81.17805 4967 ft 107 kts 160°
2026-05-04 15:17 29.40906 -81.17303 4965 ft 107 kts 159°
2026-05-04 15:17 29.40199 -81.17055 4966 ft 107 kts 159°
2026-05-04 15:18 29.39482 -81.16805 4964 ft 107 kts 159°
2026-05-04 15:18 29.38770 -81.16556 4965 ft 107 kts 159°
2026-05-04 15:18 29.38060 -81.16306 4964 ft 106 kts 159°
2026-05-04 15:19 29.36633 -81.15809 4965 ft 107 kts 160°
2026-05-04 15:19 29.35923 -81.15561 4964 ft 106 kts 160°
2026-05-04 15:19 29.34496 -81.15063 4962 ft 107 kts 160°
2026-05-04 15:20 29.33783 -81.14814 4960 ft 107 kts 160°
2026-05-04 15:20 29.33066 -81.14565 4964 ft 107 kts 160°
2026-05-04 15:20 29.32359 -81.14317 4963 ft 106 kts 160°
2026-05-04 15:20 29.31647 -81.14068 4963 ft 106 kts 160°
2026-05-04 15:21 29.30971 -81.13727 4941 ft 103 kts 150°
2026-05-04 15:21 29.30354 -81.13348 4780 ft 100 kts 145°
2026-05-04 15:21 29.29223 -81.12494 4451 ft 95 kts 144°
2026-05-04 15:22 29.28640 -81.12120 4280 ft 96 kts 147°
2026-05-04 15:22 29.28063 -81.11723 4102 ft 97 kts 143°
2026-05-04 15:22 29.26842 -81.10798 3570 ft 118 kts 139°
2026-05-04 15:23 29.26177 -81.10270 3386 ft 116 kts 141°
2026-05-04 15:23 29.25484 -81.09746 3137 ft 118 kts 142°
2026-05-04 15:23 29.24835 -81.09258 2867 ft 106 kts 133°
2026-05-04 15:23 29.24264 -81.08750 2517 ft 106 kts 126°
2026-05-04 15:24 29.23017 -81.07791 1804 ft 96 kts 147°
2026-05-04 15:24 29.21927 -81.07186 1353 ft 75 kts 144°
2026-05-04 15:25 29.21467 -81.06894 1135 ft 78 kts 142°
2026-05-04 15:25 29.20990 -81.06600 936 ft 76 kts 143°
2026-05-04 15:25 29.20513 -81.06342 727 ft 76 kts 146°
2026-05-04 15:26 29.19561 -81.05875 261 ft 72 kts 144°
2026-05-04 15:26 29.19114 -81.05650 80 ft 66 kts 141°
2026-05-04 15:26 29.18603 -81.05396 30 ft 1 kts 54°
2026-05-04 15:27 29.18651 -81.05302 30 ft 15 kts 60°
2026-05-04 15:27 29.18661 -81.05235 30 ft 0 kts 256°